www.pogodaiklimat.ru

Погода и климат >> Архив погоды >> Россия >> Краснодарский край >> Туапсе


АРХИВ ПОГОДЫ в Туапсе

Время (UTC), дата Ветер
(напр.,м/с)
 
Видим.   Явления Облачность Т
(С)
Тd
(С)
f
(%)
Тe
(С)
Тes
(С)
Комфортность P
(гПа)
Po
(гПа)
Тmin
(С)
Tmax
(С)
R
(мм)
R24
(мм)
S
(см)
12 15.11 ЮЗ 2 20 км 10/8 600 м
[Cu Sc Ci sp]
+15.3 +12.0 81 +15 +15 тепло 1021.1 1013.8
15 15.11 В 1 10 км 10/8 600 м
[Cb cap Ci sp]
+13.8 +10.9 83 +14 +14 тепло 1022.0 1014.6 +18.4
18 15.11 СВ 2 10 км 8/5 600 м
[Cu med, cong Ci sp]
+12.5 +8.7 78 +12 +12 тепло 1023.2 1015.8
21 15.11 СВ 2 10 км 10/8 600 м
[Cu Sc Ci sp]
+12.9 +8.1 73 +12 +12 тепло 1023.9 1016.4
00 16.11 СВ 2 10 км 10/10 600 м
[Cu Sc]
+12.9 +8.0 72 +12 +12 тепло 1024.6 1017.1
03 16.11 СВ 2 10 км 9/9 600 м
[Cu med, cong]
+12.2 +7.4 72 +11 +11 тепло 1025.0 1017.5 +12.2
06 16.11 СВ 3 20 км 9/9 1000 м
[Cu Sc]
+12.3 +7.0 70 +11 +11 тепло 1025.9 1018.5 +11.7
09 16.11 СВ 2 20 км 9/4 1000 м
[Cu Sc Ci]
+16.5 +8.0 57 +17 +19 тепло 1025.4 1018.0
12 16.11 ЮЗ 1 20 км 8/4 1000 м
[Cu Sc Ci fib]
+18.0 +11.3 65 +19 +20 тепло 1024.9 1017.6
15 16.11 СВ 3 10 км 8/3 1000 м
[Cu Sc Ci fib]
+12.8 +7.2 69 +12 +12 тепло 1024.6 1017.2 +18.3
18 16.11 СВ 2 10 км 10/8 1000 м
[Cu Sc Ci]
+12.8 +7.3 69 +12 +12 тепло 1024.5 1017.0
21 16.11 С 2 10 км 10/9 1000 м
[Sc Ci]
+11.3 +6.7 73 +10 +10 тепло 1024.2 1016.7
00 17.11 СВ 4 10 км 3/0
[Ci fib]
+10.8 +6.2 73 +8 +8 по сезону 1023.5 1016.0
03 17.11 С 3 10 км 3/0
[Ci fib]
+10.8 +5.7 71 +9 +9 тепло 1022.5 1015.0 +10.8
06 17.11 СВ 4 20 км 4/0
[Ci fib]
+11.9 +5.5 65 +10 +10 тепло 1023.2 1015.7 +10.6
09 17.11 СВ 2
{10}
20 км 4/0
[Ci fib]
+16.7 +5.6 48 +17 +21 тепло 1021.7 1014.4
12 17.11 СВ 4
{10}
20 км 6/0
[Ci fib]
+15.2 +5.2 51 +14 +15 тепло 1020.0 1012.6
15 17.11 СВ 5-10
{12}
10 км 6/0
[Ci fib]
+11.6 +4.9 63 +9 +9 по сезону 1019.2 1011.7 +17.1
18 17.11 СВ 3
{12}
10 км 4/0
[Ci fib]
+11.4 +5.0 65 +10 +10 тепло 1019.0 1011.6
21 17.11 СВ 2 10 км ясно +11.5 +4.7 63 +11 +11 тепло 1018.7 1011.2
00 18.11 СВ 2 10 км ясно +9.7 +4.9 72 +8 +8 по сезону 1018.8 1011.3
03 18.11 СВ 3 10 км ясно +8.0 +4.8 80 +5 +5 по сезону 1018.8 1011.2 +8.0
06 18.11 СВ 2 20 км 8/0
[Ci]
+9.8 +5.8 76 +8 +9 по сезону 1019.0 1011.5 +8.0
09 18.11 ЮВ 4 20 км 4/0
[Ci fib]
+16.8 +8.9 60 +16 +19 тепло 1018.2 1010.9
12 18.11 ЮВ 2 20 км 10/0
[Ci]
+16.8 +9.0 60 +17 +18 тепло 1017.0 1009.7
15 18.11 СВ 1 10 км 10/0
[Ci fib]
+14.9 +6.5 57 +16 +16 тепло 1016.2 1008.8 +17.1
18 18.11 СВ 2 10 км 10/0
[Ci fib]
+14.3 +5.9 57 +14 +14 тепло 1015.5 1008.1
21 18.11 В 2 10 км 10/0
[Ci sp]
+15.0 +5.3 52 +15 +15 тепло 1014.9 1007.6
00 19.11 С 1 10 км 10/0
[Ci sp]
+14.4 +5.0 53 +15 +15 тепло 1014.3 1007.0
03 19.11 СВ 2 10 км 3/0
[Ci sp]
+13.9 +4.7 54 +14 +14 тепло 1013.0 1005.7 +12.9
06 19.11 СВ 2 20 км 10/3 1000 м
[Sc Ci sp]
+14.1 +4.4 52 +14 +14 тепло 1012.4 1005.1 +12.4
09 19.11 ЮЗ 1 20 км 9/0
[Ci sp]
+19.6 +4.1 36 +21 +25 комфорт 1011.7 1004.5
12 19.11 Ю 3 20 км 10/1 1000 м
[Cu med, cong Ac cast Ci sp]
+17.8 +7.4 51 +18 +19 тепло 1010.9 1003.7
15 19.11 ЮВ 4 10 км 10/4 1000 м
[Cu Sc Ac cast Ci sp]
+18.0 +5.5 44 +18 +18 тепло 1009.9 1002.6 +19.7
18 19.11 ЮВ 5-10
{11}
10 км 10/8 1000 м
[Cu Sc Ac trans Ci sp]
+17.7 +8.1 53 +17 +17 тепло 1010.1 1002.9
21 19.11 ЮВ 8-15
{16}
4000 м слабый ливневой дождь 10/10 600 м
[Cb cap]
+16.9 +11.2 69 +16 +16 тепло 1009.9 1002.7
00 20.11 ЮВ 7-13
{17}
10 км {ливн. осадки} 10/10 600 м
[Cb cap]
+17.2 +10.4 64 +16 +16 тепло 1010.2 1003.0
03 20.11 ЮВ 6-12
{15}
10 км 8/8 1000 м
[Cb cap]
+16.7 +6.8 52 +16 +16 тепло 1009.8 1002.6 +16.0 0.0
06 20.11 ЮВ 5-10
{11}
20 км 8/1 1000 м
[Sc Ci fib]
+17.6 +8.1 54 +17 +17 тепло 1009.4 1002.1
09 20.11 ЮВ 6-12
{13}
20 км 10/8 1000 м
[Cu Sc Ci]
+17.2 +10.2 63 +16 +17 тепло 1008.4 1001.2
12 20.11 ЮВ 5-10
{14}
20 км {ливн. осадки} 9/8 1000 м
[Cb cap Ci fib]
+17.4 +9.9 61 +17 +17 тепло 1007.1 999.8
15 20.11 ЮВ 6-12
{13}
10 км 9/8 1000 м
[Cb cap Ci]
+17.7 +7.1 50 +17 +17 тепло 1006.2 999.0 +18.0 0.0
18 20.11 ЮВ 2
{12}
10 км {ливн. осадки} 10/8 1000 м
[Cb cap Ci]
+17.3 +7.5 53 +18 +18 тепло 1004.8 997.6
21 20.11 СВ 4
{14}
10 км в посл. час ливневой дождь 10/8 1000 м
[Cb cap Ci]
+14.8 +7.9 63 +14 +14 тепло 1002.9 995.6
00 21.11 СВ 3 4000 м слабый ливневой дождь 10/10 600 м
[Cb cap]
+14.4 +10.3 76 +14 +14 тепло 1002.9 995.6
03 21.11 В 4
{12}
4000 м слабый ливневой дождь 10/10 600 м
[Cb cap]
+14.5 +8.8 69 +13 +13 тепло 1002.2 994.9 +14.2 3
06 21.11 СВ 2 10 км в посл. час ливневой дождь 10/5 1000 м
[Cb cap Ac trans Ci fib]
+13.1 +10.4 84 +12 +13 тепло 1000.3 993.1 +13.1
09 21.11 СВ 2 20 км 10/8 1000 м
[Cb cap Ac As]
+16.6 +7.6 55 +17 +17 тепло 996.6 989.5
12 21.11 С 2
{10}
20 км в посл. час ливневой дождь 9/4 1000 м
[Cb cap Ac trans Ci fib]
+15.8 +9.5 66 +16 +16 тепло 995.8 988.6
15 21.11 ЮЗ 1
{13}
4000 м гроза, ливневой дождь 10/10 600 м
[Cb cap]
+11.8 +9.9 88 +12 +12 тепло 998.3 991.0 +16.7 11
18 21.11 З 3-10
{11}
4000 м слабый ливневой дождь {гроза} 10/10 600 м
[Cb cap]
+6.6 +4.4 86 +3 +3 прохладно 1002.3 994.9
21 21.11 С 2
{14}
4000 м слабый ливневой дождь 10/10 600 м
[Cb cap]
+4.7 +2.1 83 +2 +2 прохладно 1010.3 1002.7
00 22.11 С 2 10 км {ливн. осадки} 10/6 1000 м
[Cb cap Ac trans Ci fib]
+4.9 +1.5 79 +2 +2 прохладно 1012.9 1005.3
03 22.11 С 1 10 км 10/4 1000 м
[Cb cap Ac trans Ci fib]
+4.5 +0.6 76 +3 +3 по сезону 1014.4 1006.8 +4.1 18
06 22.11 В 2 10 км слабый ливневой дождь 10/10 600 м
[Cb cap]
+3.8 +1.3 84 +1 +1 прохладно 1016.2 1008.5 +3.7

 

Местоположение метеостанции Туапсе (Краснодарский край, Россия): широта 44.10 долгота 39.07 высота над уровнем моря 62 м.

В архиве по умолчанию представлена погода в Туапсе за последнюю неделю. Архивные данные за месяц целиком и за предыдущие месяцы, начиная с января 2011 года, Вы можете получить, выбрав интересующий диапазон дат из раскрывающегося списка и нажав кнопку "Ввод!".

Внимание! Время в таблицах - всемирное. Для получения местного времени необходимо прибавить поправку, которая в Туапсе равна 3 ч.

Смотрите также архив погоды в соседних городах и на ближайших метеорологических станциях:

Погода в Горном (Краснодарский край, Россия) (26 км)
Погода в Джубге (Краснодарский край, Россия) (38 км)
Погода в Горячем Ключе (Краснодарский край, Россия) (59 км)
Погода в Сочи (Краснодарский край, Россия) (81 км)
Погода в Гузерипле (Адыгея, Россия) (85 км)
Погода в Шунтуке (Адыгея, Россия) (93 км)
Погода в Геленджике (Краснодарский край, Россия) (95 км)
Погода в Белореченске (Краснодарский край, Россия) (98 км)
Погода в Майкопе (Адыгея, Россия) (99 км)
Погода в Сочи аэропорту (Адлер) (Краснодарский край, Россия) (100 км)

Пояснения к столбцам:

Ветер - указаны скорость ветра в м/с - средняя за 10 мин, порывы в срок и между сроками (в фигурных скобках) и направление, откуда дует ветер: С - северный, СВ - северо-восточный, В - восточный, ЮВ - юго-восточный, Ю - южный, ЮЗ - юго-западный, З - западный, СЗ - северо-западный.
Видимость - горизонтальная дальность видимости в метрах или километрах. При видимости от 1 до 10 км при отсутствии осадков обычно наблюдается дымка, при ухудшении видимости до 1 км и менее - туман. В сухую погоду видимость может ухудшаться дымом, пылью или мглою.
Явления - указаны атмосферные явления, наблюдавшиеся в срок или в последний час перед сроком; фигурными скобками обозначены явления, наблюдавшиеся между сроками (за 1-3 часа до срока); квадратными скобками обозначены град или гололедные отложения с указанием их диаметра в мм.
Облачность - указаны через наклонную черту общая и нижняя облачность в баллах и высота нижней границы облаков в метрах; квадратными скобками обозначены формы облаков: Ci - перистые, Cs - перисто-слоистые, Cc - перисто-кучевые, Ac - высококучевые, As - высокослоистые, Sc - слоисто-кучевые, Ns - слоисто-дождевые, Cu - кучевые, Cb - кучево-дождевые. Подробнее классификацию облаков см. в Атласе облаков (PDF).
T - Температура воздуха - температура, измеренная на высоте 2 м над землей.
Td - Температура точки росы - температура, при понижении до которой содержащийся в воздухе водяной пар достигнет насыщения.
f - Относительная влажность воздуха - влажноcть воздуха, измеренная на высоте 2 м над землей.
Te - Эффективная температура - температура, которую ощущает одетый по сезону человек в тени. Характеристика душности погоды. При расчете учитывается влияние влажности воздуха и скорости ветра на теплоощущения человека.
Tes - Эффективная температура на солнце - температура, которую ощущает человек, с поправкой на солнечный нагрев. Характеристика знойности погоды. Зависит от высоты солнца над горизонтом, облачности и скорости ветра. Ночью, в пасмурную погоду, а также при ветре 12 м/с и более поправка равна нулю.
P - Атмосферное давление - приведенное к уровню моря атмосферное давление.
Po - Атмосферное давление - измеренное на уровне метеостанции атмосферное давление.
Tmin - Минимальная температура - минимум температуры воздуха на высоте 2 м над землей.
Tmax - Максимальная температура - максимум температуры воздуха на высоте 2 м над землей.
R - Количество осадков - Количество выпавших осадков за период времени, мм. При наведении курсора мыши на число - период времени, за который выпало указанное количество осадков.
R24 - Количество осадков - Количество выпавших осадков за 24 часа, мм.
S - Снежный покров - Высота снежного покрова, см. При наведении курсора мыши на число - состояние снежного покрова и степень покрытия местности в баллах.